Location: Oshawa
(43.9000°N, 78.8670°W)
Time: 12:44:46
(UTC-05:00)

PAYLOAD A - Visible Passes

Search period start: 21 November 2014 00:00
Search period end: 01 December 2014 00:00
Orbit: 691 x 833 km, 98.2° (Epoch: 20 November)

Date Brightness Start Highest point End Pass type
(mag) Time Alt. Az. Time Alt. Az. Time Alt. Az.
21 Nov 5.6 17:14:00 10° ENE 17:15:36 12° ENE 17:17:13 10° NE visible
21 Nov 3.7 18:49:08 10° SSE 18:53:53 88° WSW 18:58:36 10° NNW visible
22 Nov 4.2 18:12:03 10° SE 18:16:27 40° ENE 18:20:49 10° N visible
22 Nov 6.1 19:51:54 10° SW 19:55:35 22° W 19:59:14 10° NW visible
23 Nov 7.2 06:20:36 10° ENE 06:22:29 12° E 06:24:24 10° ESE visible
23 Nov 5.1 17:35:57 10° ESE 17:39:13 19° ENE 17:42:28 10° NNE visible
23 Nov 4.6 19:13:14 10° S 19:17:49 51° W 19:22:24 10° NNW visible
24 Nov 3.6 18:35:35 10° SSE 18:40:16 69° ENE 18:44:56 10° N visible
24 Nov 6.8 20:17:37 10° WSW 20:19:44 13° W 20:21:51 10° WNW visible
25 Nov 6.7 06:42:58 10° NE 06:46:40 21° E 06:50:26 10° SE visible
25 Nov 4.5 17:58:49 10° SE 18:02:54 30° ENE 18:06:59 10° N visible
25 Nov 5.6 19:37:45 10° SSW 19:41:51 29° W 19:45:57 10° NW visible
26 Nov 5.4 17:23:14 10° E 17:25:44 15° ENE 17:28:15 10° NNE visible
26 Nov 4.0 18:59:29 10° S 19:04:09 69° WSW 19:08:50 10° NNW visible
27 Nov 3.9 18:22:08 10° SE 18:26:40 51° ENE 18:31:12 10° N visible
27 Nov 6.4 20:02:51 10° SW 20:05:57 17° W 20:09:04 10° NW visible
28 Nov 6.9 06:29:54 10° NE 06:32:56 16° E 06:36:02 10° SE visible
28 Nov 4.8 17:45:42 10° ESE 17:49:22 23° ENE 17:53:03 10° NNE visible
28 Nov 5.0 19:23:44 10° SSW 19:28:08 39° W 19:32:33 10° NNW visible
29 Nov 5.6 17:11:03 10° ENE 17:12:18 11° ENE 17:13:32 10° NE visible
29 Nov 3.6 18:45:49 10° SSE 18:50:30 87° ENE 18:55:14 10° NNW visible
30 Nov 6.5 06:52:51 10° NE 06:57:05 27° E 07:01:24 10° SSE visible
30 Nov 4.2 18:08:47 10° SE 18:13:05 38° ENE 18:17:26 10° N visible
30 Nov 6.0 19:48:28 10° SSW 19:52:11 23° W 19:55:57 10° NW visible
